Overview Statistics Trail Chart Weather Telemetry Raw packets
 

This is the latest recevied weather packets stored in our database for station/object SV1JSO-13. If no packets are shown the sender has not sent any weather packets the latest 10 day(s).

<< 5 6 7 8 9 10 11 >>
Time Temp. Humidity Pressure Rain* Wind** Luminosity Snow
1788619501 32.78° C 27% 1009.6 hPa 0 mm - 253 W/m² -
1788619201 32.22° C 27% 1009.5 hPa 0 mm - 268 W/m² -
1788618901 32.78° C 26% 1009.6 hPa 0 mm - 284 W/m² -
1788618601 32.78° C 27% 1009.5 hPa 0 mm - 298 W/m² -
1788618301 32.22° C 26% 1009.5 hPa 0 mm - 317 W/m² -
1788618001 32.78° C 26% 1009.5 hPa 0 mm - 329 W/m² -
1788617701 32.78° C 27% 1009.5 hPa 0 mm - 344 W/m² -
1788617401 32.22° C 27% 1009.5 hPa 0 mm - 359 W/m² -
1788617101 32.22° C 27% 1009.4 hPa 0 mm - 371 W/m² -
1788616801 32.22° C 27% 1009.6 hPa 0 mm - 387 W/m² -
1788616501 32.78° C 26% 1009.4 hPa 0 mm - 400 W/m² -
1788616201 32.78° C 27% 1009.6 hPa 0 mm - 416 W/m² -
1788615900 32.78° C 26% 1009.6 hPa 0 mm - 430 W/m² -
1788615601 33.33° C 26% 1009.5 hPa 0 mm - 438 W/m² -
1788615301 32.78° C 26% 1009.7 hPa 0 mm - 454 W/m² -
1788615001 32.78° C 26% 1009.7 hPa 0 mm - 471 W/m² -
1788614701 32.78° C 26% 1009.7 hPa 0 mm - 485 W/m² -
1788614401 32.78° C 26% 1009.8 hPa 0 mm - 498 W/m² -
1788614101 32.22° C 25% 1009.6 hPa 0 mm - 509 W/m² -
1788613801 32.78° C 25% 1009.8 hPa 0 mm - 526 W/m² -
1788613501 32.22° C 26% 1009.9 hPa 0 mm - 541 W/m² -
1788613201 32.22° C 26% 1009.8 hPa 0 mm - 549 W/m² -
1788612900 32.22° C 26% 1009.9 hPa 0 mm - 560 W/m² -
1788612601 32.78° C 25% 1009.9 hPa 0 mm - 573 W/m² -
1788612301 32.22° C 26% 1009.9 hPa 0 mm - 591 W/m² -

* Rain latest hour (hover to see other rain measurements)
** Current wind speed in m/s (hover to see current wind gust speed)